Location: Waco, TX
(31.5480°N, 97.1670°W)
Time: 06:20:30
(UTC-05:00)

ISS - Pass Details

Date: 23 September 2022
Orbit: 414 x 417 km, 51.6° (Epoch: 01 October)

Event Time Altitude Azimuth Distance (km) Brightness Sun altitude
Rises 18:02:00 0° 258° (WSW) 2,346 1.9 16.5°
Reaches altitude 10° 18:04:31 10° 277° (W) 1,487 0.8 16.0°
Maximum altitude 18:06:57 18° 324° (NW) 1,081 -1.2 15.5°
Drops below altitude 10° 18:09:23 10° 11° (N) 1,493 -1.1 15.0°
Sets 18:11:56 0° 31° (NNE) 2,360 -0.3 14.4°
